Résultats de la compétition "Ecault Février 2008" du 03-02-2008 organisée par le club 6205
     
  Télécharger le fichier CSV.  
     
     

 Circuit "A"

Licence Nom Prénom Temps CN
précédent
Score sur
la course
Différence
6999MAHIEUPierre1:23:3861596265+106
9630SMIRNOVSerguei1:31:1261795745-434
722FLICOTEAUXRaphael1:39:2756385268-370
14153CHARLEMAGNEJulien1:45:17N/A4976N/A
15242LECERFRenaud2:02:08N/A4290N/A
16563DUMONTJ-LucN/AN/A0N/A

  Indice de confiance du circuit (moyenne des différences entre CN et score sur la course des 3 à 10 premiers) : 229




 Circuit "B"

Licence Nom Prénom Temps CN
précédent
Score sur
la course
Différence
17574LEQUINTRémi1:21:0651544939-215
16381THEBAULTFrancois1:31:0249544400-554
11077MAUCONDUITArnaud1:31:1138884393+505
13757PRINSGregory1:33:1849484293-655
15245BARTOSThomas1:40:0536584002+344
658QUEYROIStephane1:43:3042283870-358
18651DROGOULMatthieu1:46:18N/A3768N/A
18355BRUNOOlivier1:51:5543293579-750
13756FLANDRINGautier1:56:4241063432-674
16961PARMENTFabien2:15:4531062951-155
18448RICQUEBOURGAxel2:37:2921112543+432
19337VANDEMBROUCQPhilippeN/AN/A0N/A
16281BIZOTLaurentN/A37800-3780

  Indice de confiance du circuit (moyenne des différences entre CN et score sur la course des 3 à 10 premiers) : 331




 Circuit "C"

Licence Nom Prénom Temps CN
précédent
Score sur
la course
Différence
13278TAELEMANSPhilippe0:56:3053225702+380
12468RADONDYDaniel1:01:1755135257-256
1947POULAINJoel1:01:4654305215-215
1233CREFCOEURPhilippe1:04:3359134990-923
7200SZYMANOWSKIFabrice1:07:2846254775+150
5421LOTERIEJ-Francois1:08:1255674723-844
5160QUENEC'HDUJ-Luc1:15:5740654241+176
18133VILLARAurélie1:17:0747524177-575
10079PAPINPhilippe1:20:5138763984+108
14227DESRUMAUXMarie1:20:5143963984-412
2892MOULIERECamille1:21:1045523969-583
11655ANDRECamille1:22:5850413883-1158
15401MUNNIERFabien1:23:09N/A3874N/A
8947BOULANGERPatrick1:24:0040413835-206
13088GRENOUILLATJ-Louis1:26:3536163721+105
9426LERICHECamille1:29:3739183595-323
11434SAUVAGEElsa1:33:47N/A3435N/A
8445FINASCeline1:36:3142993338-961
5137AVEDIKIANNicolas1:38:4642753262-1013
19812SOULATDenis1:40:51N/A3194N/A
8814BENOITEric1:45:49N/A3044N/A
9870LE-GOALLECAnaïs1:47:2740122998-1014
6995DECARPIGNYGwladys1:49:4740092934-1075
16229VERCAUTERENM-Claude1:57:1633432747-596
11669GEIRNARTMarc2:01:1232702658-612
19699GOBERTAlain2:05:16N/A2572N/A
19602VACHERJean Philippe2:15:25N/A2379N/A
10082TORZPaulineN/A40290-4029

  Indice de confiance du circuit (moyenne des différences entre CN et score sur la course des 3 à 10 premiers) : 264




 Circuit "D"

Licence Nom Prénom Temps CN
précédent
Score sur
la course
Différence
17576JOLYPhilippe0:41:1354486076+628
14909JOLYFrancois0:42:5760135831-182
13669DESREUMAUXArthur0:47:1659865299-687
14673LECLERCBenjamin0:50:4963624929-1433
9874AVEDIKIANVincent0:53:5564054645-1760
17628MANIERELouis0:57:5447004326-374
7215LEROYJacques1:00:1542094157-52
1953SAINT-UPERYPatrick1:01:5839324042+110
9523WULLUSJ-Noel1:03:3034993944+445
18803BECARTBernard1:10:1918293562+1733
13087GRENOUILLATAnnick1:10:5028403536+696
9427LERICHEClotilde1:13:4050603400-1660
10766ROBYNLaurence1:13:5134293391-38
10639BOULANGERIsabelle1:13:5131983391+193
12963CASTIERPhilippe1:16:2343743279-1095
12646BLUMVirginie1:18:2742663192-1074
7218LEROYAgathe1:19:5443123135-1177
13645LEGRANDMurielle1:20:3926083105+497
15393LOZANOThomas1:21:2237663078-688
2884LECOYERRegis1:21:3833883068-320
5627STRULLUFrederic1:21:41N/A3066N/A
14900PRESSONBernard1:21:4538703064-806
1948POULAINOdile1:21:4732023062-140
18191DELAPORTEArthur1:21:5534943057-437
7216LEROYOdile1:26:3036132895-718
16227VERCAUTERENFrancois1:27:2135462867-679
9164TORZDidier1:27:3836062858-748
14665SZYMANOWSKIValentin1:28:2445822833-1749
17345LARGILLERELucien1:32:2742372709-1528
16205HUMBERTCLAUDEJ-Paul1:32:5230792697-382
17071VANHAUWAERTClaire1:40:5832602481-779
10083TORZLola1:46:4840722345-1727
10084TORZAgathe1:49:4732882281-1007
9406AVEDIKIANRachel1:50:1632992271-1028
13778PICAVETFrancis1:52:1721772231+54
19526SOULATMarion1:52:58N/A2217N/A
9165BAILLEULJ-PaulN/A39840-3984
16956GALETElisabethN/A26910-2691
14372DUBOISRemiN/A61980-6198
13672BLUMSylvainN/A26340-2634

  Indice de confiance du circuit (moyenne des différences entre CN et score sur la course des 3 à 10 premiers) : 310




 Circuit "E"

Licence Nom Prénom Temps CN
précédent
Score sur
la course
Différence
2878PATURETBertrand0:44:3444834060-423
14911LAMINETTEPauline0:49:3338993652-247
15582CIRAUDOAndrea0:50:0635023612+110
15170DESREUMAUXVictor0:51:5443043487-817
17067MANIEREMarie0:53:2838653384-481
19411DUBOISXavier0:55:31N/A3259N/A
5597EJSMONTJean0:58:4744293078-1351
18611LANQUETINCéline0:59:1432303055-175
18632CUVILLIERSPerrine0:59:4931743025-149
18312GERBEAUXNathanaëlle1:03:3533872846-541
17577FACHAUXAngélique1:05:2334342768-666
19240MAZYFrançois-rémi1:08:4329632633-330
10540DEIANAPierre1:09:4130882597-491
16226VERCAUTERENThomas1:11:1036962543-1153
19409WECHMANMarie1:12:03N/A2512N/A
10081TORZ-DRUONMagali1:22:5328332183-650
2885LECOYERAnnick1:26:3026742092-582
19880REYDANTClarisse1:32:21N/A1959N/A
17899DEPERSINIsabelle1:35:5628731886-987
5118COUPEYGuy1:38:5819921828-164
19243BAQUEBenjamin1:44:43N/A1728N/A
17201LAMINETTEM-Odile2:12:0517581370-388
19879REYDANTPhilippe2:43:06N/A1109N/A
9428LERICHEQuentinN/A25350-2535
17781DEVERLYCecileN/A24460-2446
9171POULAINYannickN/A38690-3869

  Indice de confiance du circuit (moyenne des différences entre CN et score sur la course des 3 à 10 premiers) : 332




 Circuit "F"

Licence Nom Prénom Temps CN
précédent
Score sur
la course
Différence
7045LOTERIELaurine0:39:2736503539-111
18299GOURLAINMathilde1:06:39N/A2095N/A
14245RICHARDNicole1:14:3327051873-832
15894LUDEWIG-JAMESCarol1:20:2821441735-409
17344LARGILLEREEugenie1:22:4426901688-1002
19238CAMASMandye1:28:27N/A1579N/A
19601GILLETAnnabelle1:46:39N/A1309N/A
19882REYDANTJulietteN/AN/A0N/A
19155GOURLAINMarguerite-marieN/AN/A0N/A
19881REYDANTMarie-alaïsN/AN/A0N/A

  Indice de confiance du circuit (moyenne des différences entre CN et score sur la course des 3 à 10 premiers) : 699




 Circuit "G"

Licence Nom Prénom Temps CN
précédent
Score sur
la course
Différence
18661CUVILLIERSChristophe0:34:3214792376+897
18213LARGILLÈRENicolas0:37:2026692197-472
17073VANHAUWAERTHeloise0:38:0529542154-800
16228VERCAUTERENAntoine0:40:5338612007-1854
9172POULAINGaelN/A19240-1924
15885GALETClementN/A21490-2149

  Indice de confiance du circuit (moyenne des différences entre CN et score sur la course des 3 à 10 premiers) : 1014




 Circuit "Bbis"

Licence Nom Prénom Temps CN
précédent
Score sur
la course
Différence
9629SMIRNOVKonstantin1:07:1060744774-1300
17068THIERYSebastien1:13:5550414338-703
16280DANELJerome1:14:1554104319-1091
13760BOURGOGNEGaetan1:22:0434253907+482
17313CABYRaphael1:25:03N/A3770N/A
15895LACHAUMEPatrick1:28:06N/A3640N/A
16776SANCHEZPhilippe1:29:5446973567-1130
18786SCHIMPFLaurent1:38:2035193261-258
18662NEUVILLEChristian1:41:2238903163-727
15795DESRUMAUXCeline1:41:2446633162-1501
15884THOMASPascal1:41:32N/A3158N/A
19387FARDELFlorent1:53:37N/A2822N/A
12736JOLLYFrederic1:54:2539192803-1116
14228BISQUERTChristophe1:54:4432022795-407
15883FINDINIERBertrandN/AN/A0N/A
13673BLUMJean-GuyN/A51980-5198

  Indice de confiance du circuit (moyenne des différences entre CN et score sur la course des 3 à 10 premiers) : 963






 Retour